sat.trackr.live / text

‹ back to catalog

STARLINK-1420

NORAD 45695 · 2020-035AQ

PAYLOAD ACTIVE UNKNOWN

§ Identity

Operator
Country
US
Launch date
2020-06-04
Launch site
AFETR
Launch vehicle
Mass (kg)
RCS (m²)

Purposes: comms

External: N2YO · Heavens-Above · Gunter

§ Orbital elements

Epoch: 2026-05-24T19:15:36.935712Z

Period
91.93 min
Inclination
53.0470°
Eccentricity
0.0006009
Mean motion
15.66424998 rev/d
Perigee alt
365.1 km
Apogee alt
373.2 km
Semi-major
6,747.3 km
B*
4.3706e-4
RAAN
11.0978°
Arg perigee
92.5788°
Mean anomaly
267.5915°
Rev number
33,124

§ Raw data

STARLINK-14201 45695U 20035AQ  26144.80251083  .00046029  00000+0  43706-3 0  99962 45695  53.0470  11.0978 0006009  92.5788 267.5915 15.66424998331242

JSON: /api/v1/satellites/45695 · /tle

For live sub-satellite position, see the globe view (requires WebGL).

§ Visibility from observer

Set your observer location to see the next 7 days of passes ≥ 10°. The values pass through the URL so the page stays shareable.

No JS? Fill the form by hand. The geolocation button needs JavaScript.